Погода в Пироговском

Россия / Московская область     55°58′48″N   37°44′39″E
темп.,
°C
ветер,
м/с
пор.,
м/с
влажн.,
%
обл.,
%
осадки,
мм/ч
давл.,
гПа
погр.,
м
9 марта, вт
вт900:00−14ссз379611 0.0 1010176
03:00−16ссз389733 0.0 1013194
06:00−18ссз379887 0.0 1014177
09:00−16ссз479288 0.0 1016328
12:00−13ссз468386 0.0 1017547
15:00−12ссз478092 0.0 1018712
18:00−15ссз3889100 0.0 1019376
21:00−19с399478 0.0 1022280
10 марта, ср
ср1000:00−21ссз38970 0.0 1024207
03:00−23ссз37971 0.0 1025146
06:00−25ссз37970 0.0 1027177
09:00−23с36910 0.0 1029255
12:00−17с34770 0.0 1030486
15:00−15с34740 0.0 1030667
18:00−17ссз23870 0.0 103030
21:00−20ссз23910 0.0 103224
11 марта, чт
чт1100:00−21ссз23880 0.0 103224
03:00−21сз23891 0.0 103327
06:00−21сз23910 0.0 103325
09:00−17сз23850 0.0 1034177
12:00−11зсз12759 0.0 1033487
15:00−9зюз227346 0.0 1033687
18:00−13ююз228862 0.0 103227
21:00−16ююз239132 0.0 103231
12 марта, пт
пт1200:00−17ююз23920 0.0 103255
03:00−19ююз36900 0.0 1032117
06:00−21ююз38870 0.0 1031155
09:00−17ю49780 0.0 1031267
12:00−11ю59830 0.0 1029420
15:00−8ю6118110 0.0 1028654
18:00−10ю5138142 0.0 1026550
21:00−13ю6148421 0.0 1026511
13 марта, сб
сб1300:00−13ю6158363 0.0 1025605
03:00−11ю6157881 0.0 1022708
06:00−10ю71492100 0.3 1020850
09:00−8ю71492100 1.2 1019822
12:00−5ю71292100 1.3 1018809
15:00−2ююз61093100 2.1 1018784
18:00−2ююз51192100 0.3 1017628
21:00−4ю51193100 0.4 1017542